FW0869 Weather Reports


time (UTC)temp
C
wind
direction
speed
KPH
gust
KPH
rain 1hr
cm
rain 24hr
cm
rain mn
cm
humidity
%
barometer
mb
20260505084721 5 321 16.1 27.4 0.00 0.43 0.00 89 1013.7
20260505084525 5 329 14.5 27.4 0.00 0.43 0.00 89 1013.7
20260505084519 5 0 12.9 27.4 0.00 0.43 0.00 89 1013.6
20260505084308 5 329 12.9 27.4 0.00 0.43 0.00 89 1013.7
20260505084208 5 326 11.3 24.1 0.00 0.43 0.00 89 1013.7
20260505084108 5 323 11.3 24.1 0.00 0.43 0.00 89 1013.6
20260505084009 5 355 9.7 19.3 0.00 0.43 0.00 89 1013.6
20260505083907 5 311 9.7 19.3 0.00 0.43 0.00 89 1013.7
20260505083802 5 355 9.7 19.3 0.00 0.43 0.00 89 1013.6
20260505083701 5 311 9.7 19.3 0.00 0.43 0.00 89 1013.6
20260505083608 5 340 9.7 27.4 0.00 0.43 0.00 89 1013.6
20260505083401 5 339 11.3 27.4 0.00 0.43 0.00 89 1013.7
20260505083257 5 309 11.3 27.4 0.00 0.43 0.00 89 1013.7
20260505083204 5 325 11.3 27.4 0.00 0.43 0.00 89 1013.7
20260505083007 5 349 12.9 27.4 0.00 0.43 0.00 89 1013.7
20260505083000 5 343 14.5 27.4 0.00 0.43 0.00 89 1013.7
20260505082751 6 329 14.5 27.4 0.00 0.43 0.00 89 1013.7
20260505082651 6 315 14.5 27.4 0.00 0.43 0.00 89 1013.7
20260505082550 6 350 12.9 27.4 0.00 0.43 0.00 89 1013.7
20260505082502 6 299 12.9 27.4 0.00 0.43 0.00 89 1013.9
20260505082351 6 5 12.9 27.4 0.00 0.43 0.00 89 1013.9
20260505082243 6 348 11.3 27.4 0.00 0.43 0.00 89 1013.9
20260505082144 6 340 12.9 27.4 0.00 0.43 0.00 89 1013.7
20260505082053 6 346 12.9 29.0 0.00 0.43 0.00 89 1013.7
20260505081843 6 346 11.3 29.0 0.00 0.43 0.00 89 1013.9
20260505081738 6 355 12.9 29.0 0.00 0.43 0.00 89 1013.9
20260505081645 6 17 11.3 29.0 0.00 0.43 0.00 89 1013.9
20260505081439 6 355 12.9 32.2 0.00 0.43 0.00 89 1013.9
20260505081338 6 0 12.9 32.2 0.00 0.43 0.00 89 1013.9
20260505081234 6 290 12.9 32.2 0.00 0.43 0.00 89 1013.9
20260505081139 6 5 12.9 32.2 0.00 0.43 0.00 89 1013.9
20260505080932 7 305 12.9 32.2 0.00 0.43 0.00 89 1013.9
20260505080831 7 343 11.3 32.2 0.00 0.43 0.00 89 1013.9
20260505080739 7 355 9.7 32.2 0.00 0.43 0.00 91 1014.0
20260505080426 7 319 8.0 20.9 0.00 0.43 0.00 91 1013.9
20260505080325 7 348 8.0 20.9 0.00 0.43 0.00 91 1013.9
20260505080220 7 20 8.0 20.9 0.00 0.43 0.00 91 1013.7
20260505080120 7 21 6.4 20.9 0.00 0.43 0.00 91 1013.9
20260505080019 7 348 6.4 14.5 0.00 0.43 0.00 91 1013.7
20260505075930 7 351 6.4 14.5 0.00 0.43 0.00 91 1013.7
20260505075819 7 10 4.8 12.9 0.00 0.43 0.00 91 1013.6
20260505075718 7 0 4.8 12.9 0.00 0.43 0.00 91 1013.6
20260505075616 7 346 4.8 12.9 0.00 0.43 0.00 91 1013.5
20260505075516 7 350 3.2 12.9 0.00 0.43 0.00 91 1013.5
20260505075417 7 355 3.2 9.7 0.00 0.43 0.00 91 1013.5
20260505075314 7 355 1.6 8.0 0.00 0.43 0.00 91 1013.4
20260505075211 7 350 1.6 8.0 0.00 0.43 0.00 91 1013.4
20260505075112 7 0 1.6 8.0 0.00 0.43 0.00 91 1013.4
20260505075012 7 329 0.0 8.0 0.00 0.43 0.00 91 1013.4
20260505074910 7 237 0.0 4.8 0.00 0.43 0.00 91 1013.5
20260505074815 7 179 0.0 0.0 0.00 0.43 0.00 91 1013.5
20260505074617 7 179 0.0 0.0 0.00 0.43 0.00 91 1013.4
20260505074302 7 179 0.0 0.0 0.00 0.43 0.00 91 1013.5
20260505074202 7 179 0.0 0.0 0.00 0.43 0.00 91 1013.4
20260505074107 7 179 0.0 0.0 0.00 0.43 0.00 90 1013.4
20260505073857 7 179 0.0 0.0 0.00 0.43 0.00 90 1013.4
20260505073755 7 179 0.0 0.0 0.00 0.43 0.00 90 1013.5
20260505073652 7 179 0.0 0.0 0.00 0.43 0.00 90 1013.5
20260505073553 7 179 0.0 0.0 0.00 0.43 0.00 90 1013.5
20260505073453 7 179 0.0 0.0 0.00 0.43 0.00 90 1013.6
20260505073400 7 179 0.0 0.0 0.00 0.43 0.00 90 1013.6
20260505073354 7 179 0.0 0.0 0.00 0.43 0.00 90 1013.6
20260505073145 7 179 0.0 0.0 0.00 0.43 0.00 90 1013.6
20260505073044 7 179 0.0 0.0 0.00 0.43 0.00 90 1013.6
20260505072944 7 179 0.0 0.0 0.00 0.43 0.00 90 1013.6
20260505072854 7 179 0.0 0.0 0.00 0.43 0.00 90 1013.6
20260505072847 7 179 0.0 0.0 0.00 0.43 0.00 90 1013.5
20260505072645 7 179 0.0 0.0 0.00 0.43 0.00 90 1013.5
20260505072542 7 179 0.0 0.0 0.00 0.43 0.00 90 1013.5
20260505072442 7 179 0.0 0.0 0.00 0.43 0.00 90 1013.4
20260505072340 7 179 0.0 0.0 0.00 0.43 0.00 90 1013.4
20260505072237 7 179 0.0 0.0 0.00 0.43 0.00 90 1013.5
20260505072133 7 179 0.0 0.0 0.00 0.43 0.00 90 1013.4
20260505072038 7 179 0.0 0.0 0.00 0.43 0.00 90 1013.4
20260505071831 7 179 0.0 0.0 0.00 0.43 0.00 90 1013.5
20260505071732 7 179 0.0 0.0 0.00 0.43 0.00 90 1013.5
20260505071637 7 179 0.0 0.0 0.00 0.43 0.00 90 1013.4
20260505071430 7 179 0.0 3.2 0.00 0.43 0.00 90 1013.5
20260505071327 7 179 0.0 3.2 0.00 0.43 0.00 90 1013.5
20260505071225 7 179 1.6 4.8 0.00 0.43 0.00 90 1013.5
20260505071126 7 179 1.6 4.8 0.00 0.43 0.00 90 1013.5
20260505071024 7 179 1.6 4.8 0.00 0.43 0.00 90 1013.5
20260505070923 7 179 1.6 4.8 0.00 0.43 0.00 90 1013.5
20260505070831 7 179 1.6 4.8 0.00 0.43 0.00 90 1013.5
20260505070824 7 179 1.6 4.8 0.00 0.43 0.00 90 1013.5
20260505070621 7 179 3.2 4.8 0.00 0.43 0.00 90 1013.5
20260505070413 7 179 3.2 8.0 0.00 0.43 0.00 90 1013.6
20260505070313 7 179 3.2 8.0 0.00 0.43 0.00 90 1013.6
20260505070214 7 179 3.2 8.0 0.00 0.43 0.00 90 1013.5
20260505070114 7 179 3.2 8.0 0.00 0.43 0.00 90 1013.5
20260505070012 7 179 3.2 8.0 0.00 0.43 0.00 90 1013.5
20260505065911 7 179 3.2 8.0 0.00 0.43 0.00 90 1013.6
20260505065819 7 179 3.2 8.0 0.00 0.43 0.00 90 1013.5
20260505065707 7 179 3.2 8.0 0.00 0.43 0.00 90 1013.5
20260505065603 7 179 3.2 8.0 0.00 0.43 0.00 90 1013.5
20260505065511 7 169 3.2 8.0 0.00 0.43 0.00 90 1013.5
20260505065305 7 163 3.2 8.0 0.00 0.43 0.00 90 1013.5
20260505065201 7 163 1.6 8.0 0.00 0.43 0.00 90 1013.5
20260505065100 7 192 1.6 4.8 0.00 0.43 0.00 90 1013.5
20260505065000 7 192 1.6 4.8 0.00 0.43 0.00 90 1013.5
20260505064858 7 192 1.6 3.2 0.00 0.43 0.00 90 1013.5
20260505064757 7 192 1.6 3.2 0.00 0.43 0.00 90 1013.5
20260505064655 7 192 1.6 3.2 0.00 0.43 0.00 90 1013.6
20260505064557 7 192 1.6 3.2 0.00 0.43 0.00 90 1013.6
20260505064347 7 192 1.6 3.2 0.00 0.43 0.00 90 1013.6
20260505064247 7 192 1.6 3.2 0.00 0.43 0.00 90 1013.6
20260505064146 7 192 0.0 3.2 0.00 0.43 0.00 90 1013.6
20260505064047 7 192 0.0 3.2 0.00 0.43 0.00 90 1013.6
20260505063946 7 192 0.0 3.2 0.00 0.43 0.00 90 1013.6
20260505063845 7 192 1.6 3.2 0.00 0.43 0.00 90 1013.6
20260505063743 7 192 1.6 3.2 0.00 0.43 0.00 90 1013.6
20260505063641 7 192 1.6 3.2 0.00 0.43 0.00 90 1013.6
20260505063539 7 192 1.6 3.2 0.00 0.43 0.00 90 1013.6
20260505063439 7 192 1.6 3.2 0.00 0.43 0.00 90 1013.6
20260505063354 7 192 1.6 3.2 0.00 0.43 0.00 90 1013.5
20260505063347 7 192 1.6 3.2 0.00 0.43 0.00 90 1013.6
20260505063030 7 192 1.6 3.2 0.00 0.43 0.00 90 1013.6
20260505062929 6 192 1.6 3.2 0.00 0.43 0.00 90 1013.6
20260505062848 6 192 1.6 3.2 0.00 0.43 0.00 90 1013.6
20260505062629 7 192 1.6 3.2 0.00 0.43 0.00 90 1013.6
20260505062523 6 192 1.6 3.2 0.00 0.43 0.00 90 1013.6
20260505062429 6 192 1.6 3.2 0.00 0.43 0.00 90 1013.6
20260505062240 6 192 1.6 3.2 0.00 0.43 0.00 90 1013.6
20260505062123 6 192 1.6 4.8 0.00 0.43 0.00 90 1013.6
20260505062021 6 192 0.0 4.8 0.00 0.43 0.00 90 1013.5
20260505061921 6 192 0.0 4.8 0.00 0.43 0.00 90 1013.6
20260505061821 6 192 0.0 4.8 0.00 0.43 0.00 90 1013.5
20260505061720 6 192 0.0 4.8 0.00 0.43 0.00 90 1013.6
20260505061617 6 192 0.0 4.8 0.00 0.43 0.00 90 1013.5
20260505061529 6 192 0.0 4.8 0.00 0.43 0.00 90 1013.6
20260505061225 6 192 1.6 4.8 0.00 0.43 0.00 90 1013.6
20260505061220 6 192 0.0 4.8 0.00 0.43 0.00 90 1013.6
20260505061017 6 192 0.0 4.8 0.00 0.43 0.00 90 1013.6
20260505060806 6 192 0.0 4.8 0.00 0.43 0.00 90 1013.6
20260505060708 6 192 0.0 4.8 0.00 0.43 0.00 90 1013.7
20260505060630 6 192 0.0 4.8 0.00 0.43 0.00 90 1013.7
20260505060607 6 192 0.0 4.8 0.00 0.43 0.00 89 1013.7
20260505060505 6 192 0.0 4.8 0.00 0.43 0.00 89 1013.6
20260505060405 6 192 0.0 4.8 0.00 0.43 0.00 89 1013.6
20260505060305 6 192 0.0 3.2 0.00 0.43 0.00 89 1013.6
20260505060201 6 192 0.0 3.2 0.00 0.43 0.00 89 1013.6
20260505060132 6 192 0.0 3.2 0.00 0.43 0.00 89 1013.6
20260505060100 6 192 0.0 0.0 0.00 0.43 0.00 89 1013.6
20260505055958 6 192 0.0 0.0 0.00 0.43 0.43 89 1013.6
20260505055749 6 192 0.0 0.0 0.00 0.43 0.43 89 1013.6
20260505055630 6 192 0.0 0.0 0.00 0.43 0.43 89 1013.6
20260505055549 6 192 0.0 0.0 0.00 0.43 0.43 89 1013.7
20260505055449 6 192 0.0 0.0 0.00 0.43 0.43 89 1013.7
20260505055345 6 192 0.0 0.0 0.00 0.43 0.43 89 1013.7
20260505055337 6 192 0.0 0.0 0.00 0.43 0.43 89 1013.7
20260505055050 6 192 0.0 3.2 0.00 0.43 0.43 89 1013.7
20260505054841 6 192 1.6 4.8 0.00 0.43 0.43 89 1013.7
20260505054748 6 192 1.6 4.8 0.00 0.43 0.43 89 1013.7
20260505054618 6 192 1.6 4.8 0.00 0.43 0.43 89 1013.7
20260505054545 6 192 1.6 4.8 0.00 0.43 0.43 89 1013.7
20260505054333 6 192 1.6 4.8 0.00 0.43 0.43 89 1013.7
20260505054231 6 192 1.6 4.8 0.00 0.43 0.43 89 1013.7
20260505054140 6 192 1.6 4.8 0.00 0.43 0.43 89 1013.6
20260505053931 6 192 1.6 3.2 0.00 0.43 0.43 89 1013.6
20260505053827 6 192 1.6 3.2 0.00 0.43 0.43 89 1013.6
20260505053727 6 192 1.6 3.2 0.00 0.43 0.43 89 1013.5
20260505053632 6 192 1.6 4.8 0.00 0.43 0.43 89 1013.5
20260505053437 6 192 1.6 4.8 0.00 0.43 0.43 89 1013.5
20260505053102 6 192 1.6 4.8 0.00 0.43 0.43 89 1013.5
20260505053021 6 192 1.6 4.8 0.00 0.43 0.43 89 1013.5
20260505052918 6 192 1.6 4.8 0.00 0.43 0.43 89 1013.5
20260505052818 6 192 1.6 4.8 0.00 0.43 0.43 89 1013.5
20260505052717 6 192 1.6 4.8 0.00 0.43 0.43 89 1013.5
20260505052601 6 192 1.6 3.2 0.00 0.43 0.43 89 1013.5
20260505052515 6 192 1.6 3.2 0.00 0.43 0.43 89 1013.5
20260505052413 6 192 1.6 4.8 0.00 0.43 0.43 89 1013.5
20260505052309 6 192 1.6 4.8 0.00 0.43 0.43 89 1013.5
20260505052207 6 192 1.6 4.8 0.00 0.43 0.43 88 1013.5
20260505052102 6 192 1.6 4.8 0.00 0.43 0.43 88 1013.5
20260505052008 6 192 1.6 4.8 0.00 0.43 0.43 88 1013.5
20260505051907 6 192 3.2 4.8 0.00 0.43 0.43 88 1013.5
20260505051805 6 192 3.2 4.8 0.00 0.43 0.43 88 1013.5
20260505051706 6 192 3.2 4.8 0.00 0.43 0.43 88 1013.5
20260505051601 6 192 3.2 4.8 0.00 0.43 0.43 88 1013.5
20260505051504 6 192 3.2 4.8 0.00 0.43 0.43 88 1013.6
20260505051402 6 192 3.2 4.8 0.00 0.43 0.43 88 1013.5
20260505051301 6 192 3.2 4.8 0.00 0.43 0.43 88 1013.6
20260505051159 6 192 3.2 4.8 0.00 0.43 0.43 88 1013.6
20260505051103 7 192 3.2 6.4 0.00 0.43 0.43 88 1013.7
20260505051059 7 192 3.2 6.4 0.00 0.43 0.43 88 1013.7
20260505050957 7 192 3.2 6.4 0.00 0.43 0.43 88 1013.7
20260505050854 7 192 3.2 6.4 0.00 0.43 0.43 88 1013.7
20260505050749 7 192 3.2 6.4 0.00 0.43 0.43 88 1013.7
20260505050649 7 192 3.2 6.4 0.00 0.43 0.43 88 1013.9
20260505050601 7 192 3.2 6.4 0.00 0.43 0.43 88 1013.9
20260505050549 7 192 3.2 6.4 0.00 0.43 0.43 88 1013.9
20260505050449 7 192 3.2 6.4 0.00 0.43 0.43 88 1013.7
20260505050349 7 192 3.2 6.4 0.00 0.43 0.43 88 1013.7
20260505050247 7 192 3.2 6.4 0.03 0.43 0.43 88 1013.7
20260505050148 7 204 3.2 6.4 0.03 0.43 0.43 88 1013.7
20260505041755 7 260 3.2 6.4 0.18 0.43 0.43 88 1014.0
20260505041705 7 260 3.2 6.4 0.18 0.43 0.43 88 1014.0
20260505041551 7 260 3.2 6.4 0.20 0.43 0.43 88 1014.0
20260505041454 7 217 3.2 6.4 0.20 0.43 0.43 88 1014.1
20260505041353 7 227 3.2 6.4 0.20 0.43 0.43 88 1014.1
20260505041253 7 227 3.2 6.4 0.20 0.43 0.43 88 1014.2
20260505041153 7 227 3.2 6.4 0.23 0.43 0.43 88 1014.2
20260505041052 7 227 3.2 8.0 0.23 0.43 0.43 87 1014.2
20260505041006 7 227 3.2 8.0 0.23 0.43 0.43 87 1014.3
20260505040651 7 234 4.8 8.0 0.25 0.43 0.43 87 1014.2
20260505040551 7 234 4.8 8.0 0.25 0.43 0.43 87 1014.2
20260505040451 7 234 4.8 8.0 0.25 0.43 0.43 87 1014.2
20260505040352 7 241 4.8 8.0 0.28 0.43 0.43 87 1014.2
20260505040251 7 227 4.8 8.0 0.25 0.41 0.41 87 1014.2
20260505040153 7 218 4.8 8.0 0.25 0.41 0.41 87 1014.2
20260505040052 7 222 4.8 8.0 0.25 0.41 0.41 87 1014.1
20260505035947 7 233 4.8 8.0 0.28 0.41 0.41 87 1014.2
20260505035848 7 202 4.8 8.0 0.28 0.41 0.41 87 1014.1
20260505035805 7 242 3.2 8.0 0.28 0.41 0.41 87 1014.1
20260505035758 7 213 3.2 8.0 0.30 0.41 0.41 86 1014.1
20260505035439 7 203 3.2 8.0 0.30 0.41 0.41 86 1014.1
20260505035339 7 227 3.2 6.4 0.33 0.41 0.41 86 1014.1
20260505035240 7 238 3.2 6.4 0.33 0.41 0.41 86 1014.1
20260505035150 7 230 3.2 6.4 0.33 0.41 0.41 86 1014.0
20260505035039 7 234 3.2 6.4 0.36 0.41 0.41 86 1014.0
20260505034934 7 224 3.2 6.4 0.36 0.41 0.41 86 1014.0
20260505034833 7 223 3.2 6.4 0.36 0.41 0.41 85 1014.0
20260505034733 7 221 3.2 8.0 0.36 0.41 0.41 85 1014.0
20260505034644 7 238 3.2 8.0 0.36 0.41 0.41 85 1014.0
20260505034533 7 224 3.2 8.0 0.33 0.38 0.41 85 1014.0
20260505034428 7 196 3.2 9.7 0.33 0.38 0.38 85 1014.1
20260505034327 7 221 3.2 11.3 0.33 0.38 0.38 85 1014.1
20260505034227 8 178 3.2 11.3 0.33 0.38 0.38 85 1014.1
20260505034150 8 217 3.2 11.3 0.36 0.38 0.38 85 1014.1
20260505034039 8 229 4.8 11.3 0.33 0.36 0.38 85 1014.1
20260505033723 8 244 6.4 14.5 0.33 0.36 0.36 84 1014.1
20260505033623 8 244 8.0 14.5 0.33 0.36 0.36 84 1014.1
20260505033521 8 244 8.0 14.5 0.33 0.36 0.36 84 1014.2
20260505033415 8 226 8.0 14.5 0.30 0.33 0.36 84 1014.2
20260505033315 8 222 8.0 14.5 0.30 0.33 0.33 84 1014.2
20260505033216 8 206 9.7 14.5 0.30 0.33 0.33 84 1014.3
20260505033128 8 219 9.7 14.5 0.30 0.33 0.33 84 1014.3
20260505033120 8 223 9.7 14.5 0.30 0.33 0.33 84 1014.3
20260505032817 8 267 9.7 16.1 0.28 0.30 0.30 83 1014.3
20260505032609 8 232 8.0 16.1 0.28 0.30 0.30 83 1014.2
20260505032509 8 242 9.7 16.1 0.28 0.30 0.30 83 1014.2
20260505032406 8 245 9.7 17.7 0.25 0.28 0.28 83 1014.2
20260505032305 8 240 9.7 17.7 0.25 0.28 0.28 83 1014.2
20260505032205 8 242 9.7 19.3 0.25 0.28 0.28 83 1014.2
20260505032105 8 263 9.7 19.3 0.25 0.28 0.28 83 1014.2
20260505032005 8 243 11.3 24.1 0.23 0.25 0.28 83 1014.2
20260505031757 8 220 11.3 24.1 0.23 0.25 0.25 83 1014.2
20260505031658 8 235 12.9 25.7 0.23 0.25 0.25 82 1014.2
20260505031557 8 276 14.5 25.7 0.20 0.23 0.25 82 1014.0
20260505031456 8 238 14.5 25.7 0.20 0.23 0.23 82 1014.1
20260505031351 8 256 14.5 25.7 0.20 0.23 0.23 82 1014.0
20260505031251 8 275 14.5 25.7 0.20 0.23 0.23 82 1014.0
20260505031151 8 277 16.1 25.7 0.18 0.20 0.23 81 1014.0
20260505031051 8 289 16.1 25.7 0.18 0.20 0.20 81 1014.0
20260505030959 8 259 16.1 25.7 0.18 0.20 0.20 81 1013.9
20260505030645 8 284 16.1 30.6 0.15 0.18 0.18 81 1013.9
20260505030545 9 284 16.1 30.6 0.15 0.18 0.18 81 1014.0
20260505030446 9 270 16.1 30.6 0.15 0.18 0.18 81 1014.0
20260505030341 9 271 16.1 30.6 0.13 0.15 0.18 81 1013.9
20260505030240 9 292 16.1 30.6 0.13 0.15 0.15 81 1013.9
20260505030139 9 318 16.1 30.6 0.13 0.15 0.15 81 1013.9
20260505030050 9 293 16.1 30.6 0.13 0.15 0.15 81 1013.7
20260505025939 9 261 16.1 30.6 0.10 0.13 0.15 80 1013.7
20260505025834 9 299 16.1 29.0 0.10 0.13 0.13 80 1013.7
20260505025734 9 279 16.1 29.0 0.10 0.13 0.13 80 1013.6
20260505025634 9 313 16.1 29.0 0.08 0.10 0.13 80 1013.6
20260505025534 9 288 16.1 29.0 0.08 0.10 0.10 80 1013.6
20260505025433 9 292 16.1 25.7 0.08 0.10 0.10 80 1013.5
20260505025327 9 306 16.1 25.7 0.05 0.08 0.10 80 1013.5
20260505025227 9 270 16.1 25.7 0.05 0.08 0.08 80 1013.5
20260505025133 9 313 16.1 25.7 0.05 0.08 0.08 79 1013.4
20260505024927 9 339 16.1 25.7 0.03 0.05 0.05 78 1013.5
20260505024822 9 284 16.1 22.5 0.03 0.05 0.05 78 1013.4
20260505024722 9 315 16.1 22.5 0.03 0.05 0.05 78 1013.4
20260505024620 10 272 14.5 22.5 0.03 0.05 0.05 78 1013.3
20260505024521 10 289 14.5 22.5 0.03 0.05 0.05 77 1013.3
20260505024421 10 299 14.5 22.5 0.03 0.05 0.05 77 1013.3
20260505024316 10 325 12.9 22.5 0.03 0.05 0.05 77 1013.3
20260505024215 10 299 12.9 22.5 0.03 0.05 0.05 76 1013.3
20260505024115 10 321 11.3 22.5 0.00 0.03 0.05 76 1013.2
20260505024015 10 292 9.7 20.9 0.00 0.03 0.03 76 1013.2
20260505023915 10 285 9.7 20.9 0.00 0.03 0.03 76 1013.2
20260505023717 10 306 8.0 16.1 0.00 0.03 0.03 75 1013.2
20260505023520 10 313 8.0 14.5 0.00 0.03 0.03 74 1012.9
20260505023513 10 348 8.0 14.5 0.00 0.03 0.03 74 1012.9
20260505023303 10 305 8.0 22.5 0.00 0.03 0.03 74 1012.9
20260505023204 10 347 8.0 22.5 0.00 0.03 0.03 74 1013.0
20260505023103 10 338 9.7 22.5 0.00 0.03 0.03 73 1013.0
20260505023014 10 19 9.7 22.5 0.00 0.03 0.03 73 1013.0
20260505022902 10 330 9.7 22.5 0.00 0.03 0.03 73 1012.9
20260505022759 10 333 9.7 22.5 0.00 0.03 0.03 72 1012.9
20260505022657 10 311 11.3 22.5 0.00 0.03 0.03 72 1012.9
20260505022557 10 275 11.3 22.5 0.00 0.03 0.03 72 1012.9
20260505022457 10 339 12.9 22.5 0.00 0.03 0.03 72 1012.8
20260505022356 10 355 11.3 22.5 0.00 0.03 0.03 71 1012.8
20260505022258 10 338 11.3 22.5 0.00 0.03 0.03 71 1012.8
20260505022051 10 0 11.3 22.5 0.00 0.03 0.03 71 1012.7
20260505021952 10 311 9.7 22.5 0.00 0.03 0.03 71 1012.7
20260505021859 10 331 9.7 22.5 0.00 0.03 0.03 70 1012.7
20260505021851 10 302 9.7 22.5 0.00 0.03 0.03 70 1012.6
20260505021752 10 340 9.7 22.5 0.00 0.03 0.03 70 1012.7
20260505021545 10 350 9.7 24.1 0.00 0.03 0.03 70 1012.7
20260505021456 10 317 9.7 24.1 0.00 0.03 0.03 70 1012.7
20260505021449 10 300 9.7 24.1 0.00 0.03 0.03 69 1012.7
20260505021240 10 15 11.3 24.1 0.00 0.03 0.03 69 1012.7
20260505021139 10 5 11.3 24.1 0.00 0.03 0.03 69 1012.7
20260505021039 10 355 11.3 24.1 0.00 0.03 0.03 68 1012.7
20260505020939 10 355 11.3 24.1 0.00 0.03 0.03 68 1012.7
20260505020859 10 327 11.3 24.1 0.00 0.03 0.03 68 1012.7
20260505020839 10 355 11.3 24.1 0.00 0.03 0.03 68 1012.7
20260505020733 10 11 11.3 24.1 0.00 0.03 0.03 67 1012.7
20260505020639 10 349 11.3 24.1 0.00 0.03 0.03 67 1012.7
20260505020446 10 308 9.7 22.5 0.00 0.03 0.03 67 1012.6
20260505020442 10 0 9.7 22.5 0.00 0.03 0.03 67 1012.6
20260505020127 11 348 9.7 20.9 0.00 0.03 0.03 67 1012.6
20260505020027 11 333 9.7 20.9 0.00 0.03 0.03 66 1012.6
20260505020004 11 0 9.7 20.9 0.00 0.03 0.03 66 1012.8
20260505015826 11 26 9.7 20.9 0.00 0.03 0.03 66 1012.8
20260505015721 11 344 9.7 20.9 0.00 0.03 0.03 66 1012.8
20260505015628 11 282 9.7 20.9 0.00 0.03 0.03 66 1012.8
20260505015421 11 332 9.7 20.9 0.00 0.03 0.03 66 1012.8
20260505015358 11 14 9.7 20.9 0.00 0.03 0.03 65 1012.8
20260505015321 11 334 9.7 22.5 0.00 0.03 0.03 65 1012.8
20260505015217 11 11 11.3 22.5 0.00 0.03 0.03 64 1012.8
20260505015115 11 288 11.3 22.5 0.00 0.03 0.03 64 1012.8
20260505015015 11 306 12.9 25.7 0.00 0.03 0.03 63 1012.8
20260505014915 11 337 12.9 25.7 0.00 0.03 0.03 63 1012.8
20260505014900 11 346 12.9 25.7 0.00 0.03 0.03 62 1012.8
20260505014815 11 331 11.3 25.7 0.00 0.03 0.03 62 1012.8
20260505014716 12 342 9.7 25.7 0.00 0.03 0.03 61 1012.8
20260505014509 12 289 8.0 25.7 0.00 0.03 0.03 59 1012.7
20260505014409 12 53 8.0 25.7 0.00 0.03 0.03 58 1012.7
20260505014400 12 17 8.0 25.7 0.00 0.03 0.03 58 1012.7
20260505014310 12 40 6.4 25.7 0.00 0.03 0.03 58 1012.6
20260505014127 12 5 3.2 25.7 0.00 0.03 0.03 56 1012.6
20260505014121 12 35 1.6 19.3 0.00 0.03 0.03 55 1012.7
20260505013659 12 34 1.6 4.8 0.00 0.03 0.03 54 1012.3
20260505013622 12 34 1.6 6.4 0.00 0.03 0.03 54 1012.4
20260505013615 12 34 1.6 6.4 0.00 0.03 0.03 54 1012.3
20260505013150 12 34 1.6 6.4 0.00 0.03 0.03 54 1012.2
20260505013051 12 34 1.6 6.4 0.00 0.03 0.03 55 1012.2
20260505012952 12 34 1.6 6.4 0.00 0.03 0.03 55 1012.4
20260505012851 12 34 1.6 6.4 0.00 0.03 0.03 55 1012.4
20260505012750 12 34 1.6 6.4 0.00 0.03 0.03 54 1012.4
20260505012649 12 34 1.6 6.4 0.00 0.03 0.03 54 1012.4
20260505012549 12 28 1.6 6.4 0.00 0.03 0.03 54 1012.4
20260505012449 12 10 1.6 6.4 0.00 0.03 0.03 54 1012.4
20260505012348 12 159 1.6 6.4 0.00 0.03 0.03 55 1012.4
20260505012245 12 159 1.6 6.4 0.00 0.03 0.03 55 1012.4
20260505012145 12 159 1.6 6.4 0.00 0.03 0.03 54 1012.4
20260505012113 12 159 1.6 6.4 0.00 0.03 0.03 54 1012.4
20260505011846 12 159 1.6 6.4 0.00 0.03 0.03 53 1012.4
20260505011639 12 159 3.2 8.0 0.00 0.03 0.03 53 1012.4
20260505011434 13 159 3.2 8.0 0.00 0.03 0.03 53 1012.4
20260505011355 13 159 3.2 9.7 0.00 0.03 0.03 53 1012.4
20260505011341 13 159 3.2 9.7 0.00 0.03 0.03 53 1012.3
20260505011128 13 159 3.2 9.7 0.00 0.03 0.03 53 1012.2
20260505011027 13 159 3.2 9.7 0.00 0.03 0.03 53 1012.2
20260505010927 13 159 3.2 9.7 0.00 0.03 0.03 53 1012.2
20260505010856 13 159 3.2 9.7 0.00 0.03 0.03 53 1012.2
20260505010827 13 159 4.8 9.7 0.00 0.03 0.03 53 1012.2
20260505010727 13 159 4.8 9.7 0.00 0.03 0.03 53 1012.2
20260505010621 13 159 4.8 9.7 0.00 0.03 0.03 52 1012.3
20260505010521 13 159 4.8 9.7 0.00 0.03 0.03 52 1012.3
20260505010431 13 159 4.8 9.7 0.00 0.03 0.03 52 1012.3
20260505010426 13 159 4.8 9.7 0.00 0.03 0.03 52 1012.3
20260505010222 13 147 4.8 9.7 0.00 0.03 0.03 52 1012.3
20260505010107 13 160 6.4 17.7 0.00 0.03 0.03 52 1012.3
20260505005811 13 134 6.4 17.7 0.00 0.03 0.03 52 1012.2
20260505005711 13 129 8.0 17.7 0.00 0.03 0.03 51 1012.2
20260505005612 13 101 8.0 17.7 0.00 0.03 0.03 51 1012.2
20260505005404 13 131 9.7 17.7 0.00 0.03 0.03 50 1012.1
20260505005350 13 157 9.7 17.7 0.00 0.03 0.03 50 1012.1
20260505005306 13 112 9.7 17.7 0.00 0.03 0.03 50 1012.1
20260505005205 13 141 9.7 17.7 0.00 0.03 0.03 50 1012.1
20260505005101 13 151 8.0 16.1 0.00 0.03 0.03 49 1012.1
20260505005001 13 148 8.0 16.1 0.00 0.03 0.03 49 1012.1
20260505004900 13 140 8.0 16.1 0.00 0.03 0.03 48 1012.1
20260505004851 13 126 8.0 16.1 0.00 0.03 0.03 48 1012.2
20260505004802 13 157 8.0 16.1 0.00 0.03 0.03 48 1012.2
20260505004658 13 139 6.4 14.5 0.00 0.03 0.03 48 1012.2
20260505004553 13 109 6.4 14.5 0.00 0.03 0.03 47 1012.1
20260505004453 13 92 6.4 14.5 0.00 0.03 0.03 48 1012.2
20260505004355 13 140 4.8 14.5 0.00 0.03 0.03 48 1012.2
20260505004351 13 145 4.8 14.5 0.00 0.03 0.03 48 1012.2
20260505004259 14 138 4.8 14.5 0.00 0.03 0.03 48 1012.2
20260505004052 14 156 4.8 14.5 0.00 0.03 0.03 48 1012.2
20260505003952 14 137 4.8 14.5 0.00 0.03 0.03 47 1012.2
20260505003856 14 134 3.2 11.3 0.00 0.03 0.03 47 1012.2
20260505003850 14 134 3.2 11.3 0.00 0.03 0.03 47 1012.1
20260505003800 14 134 3.2 11.3 0.00 0.03 0.03 47 1012.1
20260505003551 14 128 3.2 6.4 0.00 0.03 0.03 47 1012.1
20260505003501 14 128 1.6 6.4 0.00 0.03 0.03 47 1012.1
20260505003349 14 128 1.6 6.4 0.00 0.03 0.03 47 1012.1
20260505003250 14 121 1.6 6.4 0.00 0.03 0.03 46 1012.0
20260505003149 14 323 1.6 4.8 0.00 0.03 0.03 46 1012.0
20260505003050 14 323 1.6 4.8 0.00 0.03 0.03 46 1012.0
20260505002950 14 323 1.6 4.8 0.00 0.03 0.03 46 1012.1
20260505002852 14 323 1.6 4.8 0.00 0.03 0.03 46 1012.1
20260505002848 14 323 1.6 4.8 0.00 0.03 0.03 46 1012.0
20260505002748 14 324 1.6 4.8 0.00 0.03 0.03 46 1012.0
20260505002650 14 323 1.6 4.8 0.00 0.03 0.03 46 1012.0
20260505002549 14 324 1.6 4.8 0.00 0.03 0.03 45 1012.1
20260505002449 14 323 1.6 4.8 0.00 0.03 0.03 45 1012.0
20260505002352 14 323 1.6 4.8 0.00 0.03 0.03 45 1012.1
20260505002345 14 324 1.6 4.8 0.00 0.03 0.03 45 1012.1
20260505002242 14 323 1.6 8.0 0.00 0.03 0.03 45 1012.1
20260505002142 14 324 1.6 8.0 0.00 0.03 0.03 46 1012.1
20260505002043 14 323 1.6 8.0 0.00 0.03 0.03 46 1012.1
20260505001942 14 323 3.2 8.0 0.00 0.03 0.03 46 1012.1
20260505001851 14 324 3.2 11.3 0.00 0.03 0.03 46 1012.1
20260505001843 14 323 3.2 11.3 0.00 0.03 0.03 46 1012.1
20260505001545 14 323 4.8 12.9 0.00 0.03 0.03 45 1011.9
20260505001351 14 324 6.4 14.5 0.00 0.03 0.03 45 1011.9
20260505001337 14 323 6.4 14.5 0.00 0.03 0.03 45 1011.9
20260505001236 14 323 6.4 14.5 0.00 0.03 0.03 45 1012.0
20260505001135 14 324 6.4 14.5 0.00 0.03 0.03 45 1012.0
20260505001035 14 324 8.0 14.5 0.00 0.03 0.03 45 1012.0
20260505000935 14 308 8.0 16.1 0.00 0.03 0.03 45 1012.0
20260505000850 14 302 8.0 16.1 0.00 0.03 0.03 45 1012.0
20260505000835 14 293 8.0 16.1 0.00 0.03 0.03 45 1012.0
20260505000742 14 306 6.4 16.1 0.00 0.03 0.03 45 1011.9
20260505000543 14 336 8.0 16.1 0.00 0.03 0.03 45 1011.9
20260505000351 14 313 8.0 17.7 0.00 0.03 0.03 45 1011.9
20260505000343 14 325 8.0 17.7 0.00 0.03 0.03 45 1011.7
20260505000135 14 327 8.0 17.7 0.00 0.03 0.03 45 1011.7
20260505000036 14 338 8.0 17.7 0.00 0.03 0.03 46 1011.6
20260504235936 14 355 9.7 20.9 0.00 0.03 0.03 46 1011.7
20260504235851 14 9 9.7 20.9 0.00 0.03 0.03 46 1011.7
20260504235835 14 336 9.7 20.9 0.00 0.03 0.03 46 1011.6
20260504235735 14 306 9.7 20.9 0.00 0.03 0.03 45 1011.6
20260504235630 14 5 9.7 20.9 0.00 0.03 0.03 45 1011.6
20260504235529 14 316 9.7 20.9 0.00 0.03 0.03 44 1011.6
20260504235429 15 300 9.7 20.9 0.00 0.03 0.03 45 1011.7
20260504235351 15 299 9.7 20.9 0.00 0.03 0.03 45 1011.7
20260504235329 15 348 9.7 20.9 0.00 0.03 0.03 45 1011.7
20260504235229 15 338 9.7 20.9 0.00 0.03 0.03 45 1011.6
20260504235123 15 325 9.7 20.9 0.00 0.03 0.03 45 1011.6
20260504235030 15 355 9.7 20.9 0.00 0.03 0.03 45 1011.6
20260504234851 15 326 8.0 16.1 0.00 0.03 0.03 44 1011.6
20260504234830 15 338 8.0 16.1 0.00 0.03 0.03 44 1011.6
20260504234621 15 299 9.7 16.1 0.00 0.03 0.03 44 1011.6
20260504234521 15 332 9.7 16.1 0.00 0.03 0.03 44 1011.6
20260504234433 15 319 9.7 16.1 0.00 0.03 0.03 44 1011.6
20260504234428 15 332 9.7 16.1 0.00 0.03 0.03 44 1011.5
20260504234222 15 301 8.0 16.1 0.00 0.03 0.03 44 1011.5
20260504234121 15 334 8.0 16.1 0.00 0.03 0.03 44 1011.5
20260504234021 15 350 8.0 16.1 0.00 0.03 0.03 44 1011.4
20260504233920 15 340 8.0 17.7 0.00 0.03 0.03 44 1011.4
20260504233851 15 332 8.0 17.7 0.00 0.03 0.03 45 1011.4
20260504233828 15 0 8.0 17.7 0.00 0.03 0.03 45 1011.4
20260504233620 15 340 9.7 20.9 0.00 0.03 0.03 45 1011.4
20260504233518 15 355 9.7 20.9 0.00 0.03 0.03 45 1011.4
20260504233419 15 340 9.7 20.9 0.00 0.03 0.03 44 1011.4
20260504233347 15 347 9.7 20.9 0.00 0.03 0.03 44 1011.4
20260504233320 15 291 9.7 20.9 0.00 0.03 0.03 44 1011.4
20260504233219 15 339 9.7 20.9 0.00 0.03 0.03 44 1011.4
20260504233118 15 355 11.3 20.9 0.00 0.03 0.03 44 1011.4
20260504233019 15 294 11.3 20.9 0.00 0.03 0.03 44 1011.5
20260504232913 15 333 11.3 20.9 0.00 0.03 0.03 44 1011.5
20260504232846 15 350 11.3 20.9 0.00 0.03 0.03 45 1011.5
20260504232814 15 349 11.3 20.9 0.00 0.03 0.03 45 1011.5
20260504232711 15 347 12.9 22.5 0.00 0.03 0.03 44 1011.5
20260504232619 15 321 12.9 24.1 0.00 0.03 0.03 44 1011.5
20260504232405 15 344 12.9 24.1 0.00 0.03 0.03 44 1011.4
20260504232346 15 350 14.5 24.1 0.00 0.03 0.03 44 1011.4
20260504232312 15 324 14.5 24.1 0.00 0.03 0.03 44 1011.4
20260504232105 15 332 14.5 24.1 0.00 0.03 0.03 44 1011.4
20260504232005 15 351 14.5 24.1 0.00 0.03 0.03 44 1011.3
20260504231918 15 339 14.5 24.1 0.00 0.03 0.03 44 1011.4
20260504231914 15 355 14.5 24.1 0.00 0.03 0.03 44 1011.3
20260504231704 15 319 14.5 24.1 0.00 0.03 0.03 44 1011.3
20260504231613 15 333 14.5 22.5 0.00 0.03 0.03 44 1011.3
20260504231404 15 308 14.5 22.5 0.00 0.03 0.03 45 1011.4
20260504231347 15 293 14.5 22.5 0.00 0.03 0.03 45 1011.4
20260504231305 15 328 14.5 22.5 0.00 0.03 0.03 45 1011.4
20260504231201 15 321 14.5 22.5 0.00 0.03 0.03 45 1011.4
20260504231101 15 306 14.5 22.5 0.00 0.03 0.03 44 1011.5
20260504231002 15 298 16.1 22.5 0.00 0.03 0.03 44 1011.5
20260504230914 15 296 16.1 27.4 0.00 0.03 0.03 44 1011.5
20260504230909 15 297 16.1 27.4 0.00 0.03 0.03 44 1011.4
20260504230700 15 319 16.1 27.4 0.00 0.03 0.03 44 1011.4
20260504230600 15 291 16.1 30.6 0.00 0.03 0.03 44 1011.3
20260504230509 15 347 16.1 30.6 0.00 0.03 0.03 44 1011.3
20260504230347 15 317 16.1 30.6 0.00 0.03 0.03 44 1011.3
20260504230300 15 322 16.1 30.6 0.00 0.03 0.03 43 1011.3
20260504230209 15 319 17.7 30.6 0.00 0.03 0.03 43 1011.3
20260504225959 15 310 17.7 30.6 0.00 0.03 0.03 43 1011.1
20260504225858 14 324 17.7 30.6 0.00 0.03 0.03 44 1011.1
20260504225847 14 5 17.7 30.6 0.00 0.03 0.03 44 1011.1
20260504225758 14 343 17.7 30.6 0.00 0.03 0.03 43 1011.1
20260504225659 14 300 17.7 30.6 0.00 0.03 0.03 45 1011.3
20260504225558 14 312 17.7 29.0 0.00 0.03 0.03 45 1011.3
20260504225500 14 319 17.7 29.0 0.00 0.03 0.03 45 1011.4
20260504225359 14 296 17.7 29.0 0.00 0.03 0.03 44 1011.3
20260504225347 14 292 17.7 29.0 0.00 0.03 0.03 44 1011.3
20260504225259 14 355 17.7 29.0 0.00 0.03 0.03 44 1011.3
20260504225158 14 319 17.7 29.0 0.00 0.03 0.03 44 1011.3
20260504225107 14 297 17.7 29.0 0.00 0.03 0.03 44 1011.3
20260504224912 15 324 16.1 27.4 0.00 0.03 0.03 43 1011.1
20260504224906 14 318 16.1 27.4 0.00 0.03 0.03 43 1011.1
20260504224700 14 293 14.5 25.7 0.00 0.03 0.03 44 1011.3
20260504224605 14 313 14.5 25.7 0.00 0.03 0.03 45 1011.3
20260504224410 15 5 16.1 25.7 0.00 0.03 0.03 43 1011.3
20260504224406 14 338 16.1 25.7 0.00 0.03 0.03 43 1011.4
20260504224158 15 355 16.1 27.4 0.00 0.03 0.03 43 1011.4
20260504224055 14 296 16.1 27.4 0.00 0.03 0.03 44 1011.5
20260504223955 15 320 16.1 27.4 0.00 0.03 0.03 43 1011.5
20260504223855 15 347 16.1 27.4 0.00 0.03 0.03 43 1011.6
20260504223846 15 311 16.1 27.4 0.00 0.03 0.03 43 1011.6
20260504223755 15 269 16.1 27.4 0.00 0.03 0.03 44 1011.6
20260504223655 15 313 14.5 27.4 0.00 0.03 0.03 44 1011.6
20260504223555 15 331 14.5 27.4 0.00 0.03 0.03 44 1011.7
20260504223455 15 348 12.9 27.4 0.00 0.03 0.03 44 1011.7
20260504223354 15 319 12.9 27.4 0.00 0.03 0.03 44 1011.7
20260504223347 15 317 11.3 27.4 0.00 0.03 0.03 44 1011.7
20260504223254 15 311 11.3 25.7 0.00 0.03 0.03 45 1011.7
20260504223155 15 315 9.7 24.1 0.00 0.03 0.03 45 1011.6
20260504223054 15 322 9.7 24.1 0.00 0.03 0.03 45 1011.6
20260504222954 15 313 8.0 16.1 0.00 0.03 0.03 46 1011.6
20260504222854 15 332 8.0 16.1 0.00 0.03 0.03 46 1011.6
20260504222846 14 355 6.4 16.1 0.00 0.03 0.03 46 1011.6
20260504222755 14 334 6.4 16.1 0.00 0.03 0.03 46 1011.6
20260504222655 14 344 6.4 16.1 0.00 0.03 0.03 45 1011.6
20260504222555 14 311 6.4 16.1 0.00 0.03 0.03 45 1011.7
20260504222454 14 299 6.4 16.1 0.00 0.03 0.03 50 1011.6
20260504222405 14 26 6.4 16.1 0.00 0.03 0.03 50 1011.6
20260504222401 14 40 8.0 16.1 0.00 0.03 0.03 50 1011.7
20260504222148 14 5 8.0 19.3 0.00 0.03 0.03 49 1011.7
20260504222056 14 348 9.7 25.7 0.00 0.03 0.03 50 1011.7
20260504221851 14 321 11.3 25.7 0.00 0.03 0.03 47 1011.7
20260504221847 14 0 12.9 25.7 0.00 0.03 0.03 47 1011.7
20260504221749 15 9 12.9 25.7 0.00 0.03 0.03 47 1011.7
20260504221642 15 25 12.9 25.7 0.00 0.03 0.03 47 1011.7
20260504221551 15 355 14.5 25.7 0.00 0.03 0.03 46 1011.6
20260504221347 15 5 14.5 25.7 0.00 0.03 0.03 46 1011.5
20260504221342 15 316 14.5 25.7 0.00 0.03 0.03 46 1011.5
20260504221243 15 24 14.5 25.7 0.00 0.03 0.03 45 1011.5
20260504221143 15 0 14.5 25.7 0.00 0.03 0.03 45 1011.4
20260504221043 15 350 14.5 25.7 0.00 0.03 0.03 45 1011.3
20260504220939 15 327 16.1 29.0 0.00 0.03 0.03 43 1011.3
20260504220846 15 311 16.1 29.0 0.00 0.03 0.03 42 1011.3
20260504220838 15 286 16.1 29.0 0.00 0.03 0.03 42 1011.3
20260504220739 15 339 16.1 29.0 0.00 0.03 0.03 42 1011.3
20260504220639 15 332 17.7 29.0 0.00 0.03 0.03 41 1011.3
20260504220539 15 298 17.7 30.6 0.00 0.03 0.03 41 1011.3
20260504220439 15 294 17.7 30.6 0.00 0.03 0.03 41 1011.3
20260504220338 15 327 17.7 30.6 0.00 0.03 0.03 41 1011.1
20260504220239 15 346 19.3 30.6 0.00 0.03 0.03 41 1011.1
20260504220139 15 343 17.7 30.6 0.00 0.03 0.03 41 1011.0
20260504220045 15 242 19.3 30.6 0.00 0.03 0.03 41 1011.0
20260504215847 15 312 19.3 30.6 0.00 0.03 0.03 41 1010.9
20260504215839 15 340 19.3 30.6 0.00 0.03 0.03 41 1010.9
20260504215739 15 0 17.7 30.6 0.00 0.03 0.03 41 1010.8
20260504215639 15 332 17.7 30.6 0.00 0.03 0.03 40 1010.9
20260504215539 15 51 17.7 30.6 0.00 0.03 0.03 40 1010.8
20260504215438 15 11 17.7 30.6 0.00 0.03 0.03 41 1010.8
20260504215346 15 355 17.7 38.6 0.00 0.03 0.03 40 1010.7
20260504215338 16 5 17.7 38.6 0.00 0.03 0.03 40 1010.7
20260504215239 16 24 17.7 38.6 0.00 0.03 0.03 40 1010.7
20260504215139 16 41 17.7 38.6 0.00 0.03 0.03 40 1010.5
20260504215053 16 35 19.3 38.6 0.00 0.03 0.03 39 1010.5
20260504215046 16 355 19.3 38.6 0.00 0.03 0.03 39 1010.4
20260504214736 16 306 20.9 38.6 0.00 0.03 0.03 39 1010.4
20260504214634 16 20 20.9 38.6 0.00 0.03 0.03 38 1010.4
20260504214600 16 303 20.9 38.6 0.00 0.03 0.03 38 1010.4
20260504214334 16 324 20.9 38.6 0.00 0.03 0.03 38 1010.4
20260504214235 16 355 20.9 38.6 0.00 0.03 0.03 37 1010.3
20260504214141 16 315 20.9 38.6 0.00 0.03 0.03 38 1010.3
20260504213935 16 344 19.3 38.6 0.00 0.03 0.03 36 1010.3
20260504213846 16 0 19.3 38.6 0.00 0.03 0.03 36 1010.2
20260504213835 16 5 19.3 38.6 0.00 0.03 0.03 36 1010.2
20260504213734 17 316 19.3 38.6 0.00 0.03 0.03 36 1010.3
20260504213634 17 34 17.7 38.6 0.00 0.03 0.03 37 1010.2
20260504213542 17 337 19.3 38.6 0.00 0.03 0.03 36 1010.2
20260504213347 17 349 17.7 35.4 0.00 0.03 0.03 36 1010.1
20260504213335 17 5 17.7 35.4 0.00 0.03 0.03 36 1010.1
20260504213234 17 71 19.3 35.4 0.00 0.03 0.03 35 1010.2
20260504213131 17 355 17.7 37.0 0.00 0.03 0.03 36 1010.1
20260504213101 17 347 17.7 37.0 0.00 0.03 0.03 35 1010.2
20260504212831 18 341 17.7 37.0 0.00 0.03 0.03 33 1010.2
20260504212730 18 15 16.1 37.0 0.00 0.03 0.03 33 1010.3
20260504212631 18 355 14.5 37.0 0.00 0.03 0.03 32 1010.3
20260504212531 18 332 14.5 37.0 0.00 0.03 0.03 33 1010.3
20260504212454 18 327 12.9 37.0 0.00 0.03 0.03 33 1010.3
20260504212336 18 13 11.3 37.0 0.00 0.03 0.03 32 1010.3
20260504212130 18 14 9.7 22.5 0.00 0.03 0.03 29 1010.1
20260504212030 18 65 9.7 22.5 0.00 0.03 0.03 30 1010.1
20260504211931 18 54 9.7 22.5 0.00 0.03 0.03 31 1010.1
20260504211848 18 77 9.7 16.1 0.00 0.03 0.03 29 1010.0
20260504211831 18 74 9.7 16.1 0.00 0.03 0.03 29 1010.0
20260504211731 18 53 8.0 16.1 0.00 0.03 0.03 31 1010.0
20260504211637 18 76 8.0 16.1 0.00 0.03 0.03 30 1010.0
20260504211430 18 64 8.0 16.1 0.00 0.03 0.03 30 1010.0
20260504211330 18 84 8.0 16.1 0.00 0.03 0.03 30 1010.0
20260504211227 18 88 8.0 16.1 0.00 0.03 0.03 29 1010.0
20260504211149 18 81 8.0 14.5 0.00 0.03 0.03 33 1010.0
20260504211142 18 103 8.0 14.5 0.00 0.03 0.03 31 1010.0
20260504210720 18 80 9.7 16.1 0.00 0.03 0.03 33 1010.0
20260504210626 18 58 9.7 16.1 0.00 0.03 0.03 33 1010.0
20260504210452 18 129 8.0 16.1 0.00 0.03 0.03 31 1010.0
20260504210318 18 107 9.7 16.1 0.00 0.03 0.03 31 1010.0
20260504210213 18 106 9.7 16.1 0.00 0.03 0.03 32 1010.1
20260504210113 18 77 8.0 16.1 0.00 0.03 0.03 32 1010.0
20260504210012 18 95 8.0 16.1 0.00 0.03 0.03 33 1010.1
20260504205912 18 126 8.0 16.1 0.00 0.03 0.03 32 1010.1
20260504205844 18 109 8.0 16.1 0.00 0.03 0.03 32 1010.2
20260504205810 18 129 8.0 16.1 0.00 0.03 0.03 32 1010.2
20260504205706 18 107 6.4 12.9 0.00 0.03 0.03 33 1010.2
20260504205605 18 109 6.4 12.9 0.00 0.03 0.03 33 1010.2
20260504205504 18 141 6.4 12.9 0.00 0.03 0.03 33 1010.2
20260504205453 18 123 6.4 12.9 0.00 0.03 0.03 35 1010.2
20260504205305 18 112 6.4 12.9 0.00 0.03 0.03 36 1010.2
20260504205157 18 105 6.4 12.9 0.00 0.03 0.03 36 1010.2
20260504205104 17 119 6.4 14.5 0.00 0.03 0.03 36 1010.2
20260504204857 17 148 6.4 14.5 0.00 0.03 0.03 36 1010.3
20260504204845 17 138 6.4 14.5 0.00 0.03 0.03 36 1010.3
20260504204755 17 128 6.4 14.5 0.00 0.03 0.03 38 1010.2
20260504204650 17 135 8.0 14.5 0.00 0.03 0.03 36 1010.2
20260504204549 17 128 6.4 14.5 0.00 0.03 0.03 36 1010.2
20260504204449 17 110 6.4 14.5 0.00 0.03 0.03 38 1010.2
20260504204351 17 143 6.4 14.5 0.00 0.03 0.03 36 1010.2
20260504204346 17 142 6.4 14.5 0.00 0.03 0.03 36 1010.2
20260504204250 17 126 6.4 14.5 0.00 0.03 0.03 36 1010.3
20260504204143 17 128 6.4 14.5 0.00 0.03 0.03 37 1010.3
20260504204044 17 110 6.4 12.9 0.00 0.03 0.03 38 1010.3
20260504203944 17 86 6.4 12.9 0.00 0.03 0.03 38 1010.3
20260504203859 17 117 6.4 12.9 0.00 0.03 0.03 39 1010.3
20260504203855 17 93 6.4 12.9 0.00 0.03 0.03 39 1010.3
20260504203538 17 115 6.4 12.9 0.00 0.03 0.03 40 1010.4
20260504203440 17 121 6.4 12.9 0.00 0.03 0.03 40 1010.5
20260504203344 17 154 6.4 12.9 0.00 0.03 0.03 40 1010.5
20260504203340 16 159 6.4 12.9 0.00 0.03 0.03 40 1010.5
20260504203236 16 160 6.4 12.9 0.00 0.03 0.03 41 1010.5
20260504203131 16 150 6.4 12.9 0.00 0.03 0.03 41 1010.5
20260504203057 16 121 6.4 16.1 0.00 0.03 0.03 41 1010.5
20260504202837 16 111 6.4 16.1 0.00 0.03 0.03 41 1010.5
20260504202627 16 115 6.4 16.1 0.00 0.03 0.03 40 1010.7
20260504202524 16 143 6.4 19.3 0.00 0.03 0.03 40 1010.8
20260504202425 16 126 6.4 19.3 0.00 0.03 0.03 41 1010.8
20260504202342 16 132 6.4 19.3 0.03 0.03 0.03 41 1010.8
20260504202325 16 146 6.4 19.3 0.03 0.03 0.03 41 1010.8
20260504202225 16 126 6.4 19.3 0.03 0.03 0.03 41 1010.9
20260504202024 16 121 8.0 19.3 0.03 0.03 0.03 41 1010.9
20260504201844 16 175 8.0 19.3 0.03 0.03 0.03 40 1011.0
20260504201817 16 153 8.0 19.3 0.03 0.03 0.03 40 1011.0
20260504201716 16 166 8.0 19.3 0.03 0.03 0.03 41 1011.0
20260504201620 16 162 9.7 19.3 0.03 0.03 0.03 41 1011.1
20260504201451 16 179 9.7 20.9 0.03 0.03 0.03 44 1011.1
20260504201314 16 185 11.3 22.5 0.03 0.03 0.03 45 1011.3
20260504201209 16 205 11.3 29.0 0.03 0.03 0.03 44 1011.3
20260504201111 15 144 12.9 29.0 0.03 0.03 0.03 42 1011.3
20260504200905 15 137 11.3 29.0 0.03 0.03 0.03 43 1011.3
20260504200841 15 126 11.3 29.0 0.03 0.03 0.03 43 1011.3
20260504200803 15 115 11.3 29.0 0.03 0.03 0.03 43 1011.3
20260504200702 15 113 11.3 29.0 0.03 0.03 0.03 43 1011.4
20260504200559 15 131 11.3 29.0 0.03 0.03 0.03 42 1011.5
20260504200459 15 134 11.3 29.0 0.03 0.03 0.03 44 1011.5
20260504200443 15 175 11.3 29.0 0.03 0.03 0.03 48 1011.6
20260504200258 15 198 9.7 29.0 0.03 0.03 0.03 49 1011.4
20260504200158 15 200 9.7 20.9 0.03 0.03 0.03 51 1011.4
20260504195951 15 194 11.3 24.1 0.03 0.03 0.03 54 1011.4
20260504195850 15 178 11.3 24.1 0.03 0.03 0.03 50 1011.4
20260504195831 15 186 11.3 24.1 0.03 0.03 0.03 50 1011.4
20260504195751 15 180 11.3 24.1 0.03 0.03 0.03 52 1011.3
20260504195652 15 159 11.3 24.1 0.03 0.03 0.03 50 1011.3
20260504195559 15 116 12.9 24.1 0.03 0.03 0.03 48 1011.3
20260504195325 15 90 12.9 29.0 0.03 0.03 0.03 50 1011.3
20260504195246 14 163 11.3 29.0 0.03 0.03 0.03 49 1011.1
20260504195144 14 128 12.9 29.0 0.03 0.03 0.03 51 1011.1
20260504195041 14 123 12.9 29.0 0.03 0.03 0.03 51 1011.3
20260504194940 14 133 14.5 29.0 0.03 0.03 0.03 51 1011.0
20260504194838 14 133 14.5 29.0 0.03 0.03 0.03 51 1011.0
20260504194819 14 167 14.5 29.0 0.03 0.03 0.03 53 1011.0
20260504194739 14 143 14.5 29.0 0.03 0.03 0.03 52 1011.0
20260504194638 14 108 14.5 29.0 0.03 0.03 0.03 53 1011.1
20260504194534 14 131 14.5 29.0 0.03 0.03 0.03 55 1011.1
20260504194433 14 120 14.5 25.7 0.03 0.03 0.03 55 1011.0
20260504194333 14 148 14.5 25.7 0.03 0.03 0.03 51 1011.1
20260504194312 14 113 14.5 25.7 0.03 0.03 0.03 51 1011.1
20260504194232 14 84 16.1 29.0 0.03 0.03 0.03 50 1011.0
20260504194132 14 122 16.1 29.0 0.03 0.03 0.03 52 1011.0
20260504194029 14 123 16.1 29.0 0.03 0.03 0.03 53 1011.0
20260504194001 14 115 16.1 29.0 0.03 0.03 0.03 56 1011.0
20260504193954 14 138 16.1 29.0 0.03 0.03 0.03 55 1011.1
20260504193332 15 140 19.3 41.8 0.03 0.03 0.03 49 1011.1
20260504193325 15 182 19.3 46.7 0.03 0.03 0.03 49 1011.1
20260504193123 15 181 20.9 46.7 0.03 0.03 0.03 49 1011.1
20260504192915 15 138 22.5 48.3 0.03 0.03 0.03 45 1011.1
20260504192826 15 155 24.1 48.3 0.03 0.03 0.03 44 1011.1
20260504192820 15 170 24.1 48.3 0.03 0.03 0.03 43 1011.1
20260504192615 16 123 25.7 48.3 0.03 0.03 0.03 44 1010.9
20260504192509 16 150 25.7 48.3 0.03 0.03 0.03 44 1010.9
20260504192409 16 210 24.1 48.3 0.00 0.00 0.03 43 1011.0
20260504192311 17 180 24.1 48.3 0.00 0.00 0.00 40 1010.8
20260504192304 17 182 24.1 48.3 0.00 0.00 0.00 40 1010.8
20260504192210 17 164 24.1 48.3 0.00 0.00 0.00 37 1010.9
20260504192111 17 186 22.5 48.3 0.00 0.00 0.00 36 1010.9
20260504191905 18 190 20.9 48.3 0.00 0.00 0.00 33 1010.8
20260504191810 18 195 19.3 48.3 0.00 0.00 0.00 30 1010.9
20260504191805 18 121 19.3 48.3 0.00 0.00 0.00 30 1010.9
20260504191706 18 188 17.7 38.6 0.00 0.00 0.00 27 1010.9
20260504191603 18 167 16.1 33.8 0.00 0.00 0.00 27 1010.8
20260504191458 19 159 14.5 33.8 0.00 0.00 0.00 26 1010.8
20260504191357 19 146 14.5 33.8 0.00 0.00 0.00 25 1010.9
20260504191304 19 131 12.9 33.8 0.00 0.00 0.00 24 1010.8
20260504191256 19 132 12.9 33.8 0.00 0.00 0.00 24 1010.8
20260504191158 19 136 11.3 32.2 0.00 0.00 0.00 23 1010.8
20260504191056 19 117 9.7 32.2 0.00 0.00 0.00 22 1010.4
20260504191008 20 144 8.0 32.2 0.00 0.00 0.00 24 1010.4
20260504190854 20 146 6.4 17.7 0.00 0.00 0.00 23 1010.3
20260504190658 20 206 8.0 14.5 0.00 0.00 0.00 23 1010.2
20260504190445 20 268 8.0 19.3 0.00 0.00 0.00 24 1010.2
20260504190346 20 300 8.0 19.3 0.00 0.00 0.00 24 1010.1
20260504190303 20 225 8.0 19.3 0.00 0.00 0.00 23 1010.1
20260504190245 20 306 9.7 19.3 0.00 0.00 0.00 23 1010.1
20260504190153 20 252 9.7 19.3 0.00 0.00 0.00 24 1010.1
20260504185850 20 247 11.3 19.3 0.00 0.00 0.00 24 1010.1
20260504185843 20 280 11.3 19.3 0.00 0.00 0.00 24 1010.1
20260504185639 20 264 11.3 24.1 0.00 0.00 0.00 24 1010.1
20260504185538 20 294 11.3 24.1 0.00 0.00 0.00 24 1010.0
20260504185435 20 290 11.3 24.1 0.00 0.00 0.00 24 1010.0
20260504185335 20 291 11.3 24.1 0.00 0.00 0.00 23 1010.0
20260504185301 20 300 11.3 24.1 0.00 0.00 0.00 23 1010.0
20260504185242 20 296 11.3 24.1 0.00 0.00 0.00 23 1010.0
20260504185036 20 273 11.3 24.1 0.00 0.00 0.00 23 1009.8
20260504184907 20 348 9.7 24.1 0.00 0.00 0.00 23 1009.8
20260504184727 20 324 9.7 24.1 0.00 0.00 0.00 24 1010.0
20260504184627 20 281 9.7 20.9 0.00 0.00 0.00 23 1010.0
20260504184525 20 300 9.7 22.5 0.00 0.00 0.00 22 1010.0
20260504184423 20 329 9.7 24.1 0.00 0.00 0.00 22 1009.8
20260504184323 20 283 9.7 24.1 0.00 0.00 0.00 22 1009.8
20260504184300 20 331 9.7 24.1 0.00 0.00 0.00 22 1009.8
20260504184230 20 348 8.0 24.1 0.00 0.00 0.00 22 1009.8
20260504184023 20 355 9.7 24.1 0.00 0.00 0.00 22 1009.8
20260504183907 20 355 9.7 24.1 0.00 0.00 0.00 22 1009.8
20260504183715 20 338 9.7 24.1 0.00 0.00 0.00 22 1009.8
20260504183616 20 355 9.7 24.1 0.00 0.00 0.00 22 1009.8
20260504183519 20 17 8.0 24.1 0.00 0.00 0.00 23 1010.0
20260504183310 20 22 6.4 19.3 0.00 0.00 0.00 23 1009.8
20260504183301 20 16 6.4 19.3 0.00 0.00 0.00 23 1009.8
20260504183216 20 5 6.4 19.3 0.00 0.00 0.00 23 1010.0
20260504183008 20 13 6.4 20.9 0.00 0.00 0.00 23 1010.0
20260504182904 20 42 6.4 20.9 0.00 0.00 0.00 21 1010.0
20260504182803 20 24 6.4 20.9 0.00 0.00 0.00 23 1010.0
20260504182704 20 24 6.4 20.9 0.00 0.00 0.00 22 1010.0
20260504182603 20 339 8.0 20.9 0.00 0.00 0.00 23 1010.0
20260504182502 20 339 8.0 20.9 0.00 0.00 0.00 21 1010.0
20260504182410 20 339 8.0 20.9 0.00 0.00 0.00 22 1010.0
20260504182258 20 5 9.7 20.9 0.00 0.00 0.00 21 1010.1
20260504182157 20 325 9.7 20.9 0.00 0.00 0.00 24 1010.1
20260504182056 20 17 9.7 20.9 0.00 0.00 0.00 22 1010.1
20260504181956 20 327 11.3 20.9 0.00 0.00 0.00 22 1010.1
20260504181853 20 323 11.3 24.1 0.00 0.00 0.00 22 1010.1
20260504181758 20 5 11.3 24.1 0.00 0.00 0.00 22 1010.1
20260504181753 20 355 11.3 24.1 0.00 0.00 0.00 22 1010.1
20260504181654 20 322 11.3 24.1 0.00 0.00 0.00 23 1010.1
20260504181553 20 5 11.3 24.1 0.00 0.00 0.00 23 1010.1
20260504181506 20 11 11.3 27.4 0.00 0.00 0.00 23 1010.1
20260504181351 20 321 11.3 27.4 0.00 0.00 0.00 24 1010.1
20260504181144 20 24 11.3 27.4 0.00 0.00 0.00 24 1010.2
20260504181050 20 21 11.3 27.4 0.00 0.00 0.00 23 1010.2
20260504180900 20 296 11.3 27.4 0.00 0.00 0.00 24 1010.2
20260504180739 20 332 12.9 27.4 0.00 0.00 0.00 24 1010.3
20260504180650 20 329 14.5 27.4 0.00 0.00 0.00 24 1010.3
20260504180331 20 269 14.5 24.1 0.00 0.00 0.00 23 1010.3
20260504180252 20 284 16.1 24.1 0.00 0.00 0.00 23 1010.3
20260504180231 20 290 16.1 24.1 0.00 0.00 0.00 22 1010.3
20260504180132 20 333 16.1 24.1 0.00 0.00 0.00 23 1010.3
20260504180031 20 296 16.1 24.1 0.00 0.00 0.00 23 1010.4
20260504175930 20 274 14.5 24.1 0.00 0.00 0.00 24 1010.4
20260504175854 20 277 16.1 29.0 0.00 0.00 0.00 23 1010.4
20260504175724 20 290 14.5 29.0 0.00 0.00 0.00 24 1010.4
20260504175624 20 324 14.5 29.0 0.00 0.00 0.00 24 1010.4
20260504175535 20 355 14.5 29.0 0.00 0.00 0.00 25 1010.4
20260504175240 21 333 16.1 29.0 0.00 0.00 0.00 23 1010.4
20260504175227 20 338 16.1 29.0 0.00 0.00 0.00 24 1010.4
20260504175018 21 340 16.1 29.0 0.00 0.00 0.00 23 1010.5
20260504174918 21 304 17.7 29.0 0.00 0.00 0.00 23 1010.5
20260504174834 21 324 16.1 25.7 0.00 0.00 0.00 23 1010.5
20260504174826 21 335 16.1 25.7 0.00 0.00 0.00 23 1010.5
20260504174515 21 320 16.1 25.7 0.00 0.00 0.00 23 1010.7
20260504174411 21 300 16.1 24.1 0.00 0.00 0.00 23 1010.7
20260504174307 21 265 14.5 24.1 0.00 0.00 0.00 24 1010.7
20260504174228 21 328 14.5 24.1 0.00 0.00 0.00 23 1010.7
20260504174214 21 315 14.5 24.1 0.00 0.00 0.00 23 1010.7
20260504174007 21 288 14.5 27.4 0.00 0.00 0.00 23 1010.7
20260504173906 21 319 14.5 27.4 0.00 0.00 0.00 23 1010.8
20260504173800 21 279 14.5 27.4 0.00 0.00 0.00 23 1010.8
20260504173721 21 338 16.1 27.4 0.00 0.00 0.00 24 1010.8
20260504173701 21 290 16.1 27.4 0.00 0.00 0.00 24 1010.8
20260504173601 21 261 16.1 27.4 0.00 0.00 0.00 25 1010.9
20260504173501 21 318 16.1 27.4 0.00 0.00 0.00 25 1010.9
20260504173430 21 325 17.7 27.4 0.00 0.00 0.00 24 1010.9
20260504173155 21 343 17.7 27.4 0.00 0.00 0.00 23 1011.0
20260504173055 21 336 17.7 27.4 0.00 0.00 0.00 23 1011.0
20260504172955 21 306 17.7 27.4 0.00 0.00 0.00 23 1011.0
20260504172855 21 308 16.1 27.4 0.00 0.00 0.00 23 1011.1
20260504172748 21 292 16.1 27.4 0.00 0.00 0.00 25 1011.1
20260504172710 21 279 16.1 27.4 0.00 0.00 0.00 23 1011.1
20260504172648 21 306 16.1 27.4 0.00 0.00 0.00 23 1011.1
20260504172548 21 328 16.1 27.4 0.00 0.00 0.00 23 1011.1
20260504172449 21 279 16.1 27.4 0.00 0.00 0.00 24 1011.1
20260504172348 21 304 16.1 27.4 0.00 0.00 0.00 25 1011.1
20260504172244 21 277 16.1 30.6 0.00 0.00 0.00 24 1011.1
20260504172205 21 315 16.1 30.6 0.00 0.00 0.00 24 1011.1
20260504172145 21 284 16.1 30.6 0.00 0.00 0.00 24 1011.1
20260504172046 21 263 16.1 30.6 0.00 0.00 0.00 24 1011.1
20260504171944 21 282 16.1 30.6 0.00 0.00 0.00 23 1011.1
20260504171842 21 309 16.1 30.6 0.00 0.00 0.00 24 1011.1
20260504171747 21 304 16.1 30.6 0.00 0.00 0.00 24 1011.3
20260504171740 21 259 16.1 30.6 0.00 0.00 0.00 24 1011.3
20260504171537 21 294 16.1 30.6 0.00 0.00 0.00 24 1011.3
20260504171443 21 306 17.7 30.6 0.00 0.00 0.00 24 1011.3
20260504171231 21 346 16.1 32.2 0.00 0.00 0.00 24 1011.3
20260504171152 21 331 16.1 32.2 0.00 0.00 0.00 25 1011.3
20260504171131 21 301 16.1 32.2 0.00 0.00 0.00 25 1011.3
20260504171031 20 319 16.1 32.2 0.00 0.00 0.00 24 1011.4
20260504170932 20 284 16.1 32.2 0.00 0.00 0.00 25 1011.4
20260504170830 20 289 16.1 32.2 0.00 0.00 0.00 25 1011.3
20260504170728 20 244 16.1 32.2 0.00 0.00 0.00 24 1011.4
20260504170645 20 278 16.1 32.2 0.00 0.00 0.00 24 1011.4
20260504170624 20 300 16.1 32.2 0.00 0.00 0.00 24 1011.4
20260504170525 20 291 16.1 32.2 0.00 0.00 0.00 24 1011.3
20260504170425 20 308 16.1 32.2 0.00 0.00 0.00 24 1011.3
20260504170325 20 318 16.1 32.2 0.00 0.00 0.00 24 1011.4
20260504170219 20 304 14.5 32.2 0.00 0.00 0.00 25 1011.3
20260504170140 20 345 16.1 29.0 0.00 0.00 0.00 26 1011.4
20260504170118 20 323 16.1 29.0 0.00 0.00 0.00 26 1011.4
20260504160312 17 252 14.5 24.1 0.00 0.00 0.00 29 1012.0
20260504160213 17 244 14.5 24.1 0.00 0.00 0.00 28 1012.1
20260504151122 17 203 1.6 6.4 0.00 0.00 0.00 30 1012.1
20260504150928 17 211 1.6 6.4 0.00 0.00 0.00 28 1012.1
20260504150915 17 211 1.6 6.4 0.00 0.00 0.00 30 1012.1
20260504150814 17 240 1.6 6.4 0.00 0.00 0.00 29 1012.1
20260504150713 17 284 3.2 6.4 0.00 0.00 0.00 31 1012.1
20260504150611 17 177 3.2 6.4 0.00 0.00 0.00 30 1012.1
20260504150511 17 253 3.2 9.7 0.00 0.00 0.00 31 1012.2
20260504150422 17 253 3.2 11.3 0.00 0.00 0.00 31 1012.2
20260504150416 17 253 3.2 11.3 0.00 0.00 0.00 29 1012.2
20260504150207 17 253 4.8 11.3 0.00 0.00 0.00 30 1012.1
20260504150104 17 255 4.8 11.3 0.00 0.00 0.00 29 1012.2
20260504141322 15 253 8.0 16.1 0.00 0.00 0.00 29 1012.2
20260504141301 15 278 8.0 16.1 0.00 0.00 0.00 29 1012.2
20260504141201 15 275 8.0 16.1 0.00 0.00 0.00 28 1012.3
20260504141100 14 262 8.0 16.1 0.00 0.00 0.00 29 1012.2
20260504141000 14 261 8.0 14.5 0.00 0.00 0.00 29 1012.2
20260504140855 14 262 6.4 14.5 0.00 0.00 0.00 30 1012.2
20260504140816 14 271 6.4 14.5 0.00 0.00 0.00 30 1012.2
20260504140801 14 292 6.4 12.9 0.00 0.00 0.00 30 1012.2
20260504140554 14 265 6.4 12.9 0.00 0.00 0.00 30 1012.2
20260504140454 13 265 6.4 12.9 0.00 0.00 0.00 31 1012.2
20260504140348 13 263 4.8 12.9 0.00 0.00 0.00 30 1012.2
20260504140309 13 283 4.8 12.9 0.00 0.00 0.00 31 1012.2
20260504140249 13 284 4.8 12.9 0.00 0.00 0.00 31 1012.2
20260504140155 13 243 4.8 12.9 0.00 0.00 0.00 31 1012.3
20260504130758 11 186 6.4 20.9 0.00 0.00 0.00 31 1011.9
20260504130717 11 277 6.4 20.9 0.00 0.00 0.00 31 1011.9
20260504130658 11 256 6.4 20.9 0.00 0.00 0.00 32 1011.9
20260504130558 11 279 6.4 20.9 0.00 0.00 0.00 33 1011.9
20260504130459 11 259 4.8 20.9 0.00 0.00 0.00 33 1011.9
20260504130359 11 313 4.8 11.3 0.00 0.00 0.00 34 1011.9
20260504130259 11 269 4.8 11.3 0.00 0.00 0.00 33 1011.9
20260504130217 11 261 4.8 11.3 0.00 0.00 0.00 33 1011.7
20260504130158 11 321 4.8 11.3 0.00 0.00 0.00 32 1011.7
20260504120310 7 207 1.6 4.8 0.00 0.00 0.00 43 1011.4
20260504120210 7 207 1.6 4.8 0.00 0.00 0.00 43 1011.4
20260504120107 7 207 1.6 4.8 0.00 0.00 0.00 43 1011.4
20260504110644 6 225 1.6 3.2 0.00 0.00 0.00 46 1011.9
20260504110552 6 225 1.6 3.2 0.00 0.00 0.00 46 1011.7
20260504110344 6 225 1.6 3.2 0.00 0.00 0.00 46 1011.9
20260504110255 6 225 1.6 3.2 0.00 0.00 0.00 46 1011.9
20260504110248 6 225 1.6 4.8 0.00 0.00 0.00 45 1011.9
20260504100532 6 203 4.8 6.4 0.00 0.00 0.00 45 1012.2
20260504100431 6 203 4.8 6.4 0.00 0.00 0.00 45 1012.2
20260504100328 6 203 4.8 9.7 0.00 0.00 0.00 45 1012.2
20260504100226 6 203 4.8 9.7 0.00 0.00 0.00 45 1012.2
20260504100127 6 203 4.8 9.7 0.00 0.00 0.00 45 1012.2
20260504090123 7 208 3.2 4.8 0.00 0.00 0.00 44 1012.6
20260504090109 7 208 3.2 4.8 0.00 0.00 0.00 44 1012.6